Regional Weather Roundup
Issued by NWS Upton, NY

Current Version | Previous Version | Text Only | Print | Product List | Glossary On
Versions: 1 2 3 4 5 6 7 8 9 10 11 12 13 14 15 16 17 18 19 20 21 22 23 24 25 26 27 28 29 30 31 32 33 34 35 36 37 38 39 40 41 42 43 44 45 46 47 48 49 50
000
ASUS41 KOKX 290408
RWROKX

REGIONAL WEATHER ROUNDUP
NATIONAL WEATHER SERVICE NEW YORK NY
1200 AM EDT WED JUL 29 2015

NOTE: "FAIR" INDICATES FEW OR NO CLOUDS BELOW 12,000 FEET WITH NO
SIGNIFICANT WEATHER AND/OR OBSTRUCTIONS TO VISIBILITY.

NYZ071-072-176-178-NJZ106-104-290500-
NEW YORK CITY METRO AREA


CITY           SKY/WX    TMP DP  RH WIND       PRES   REMARKS
CENTRAL PARK   CLEAR     83  69  62 W5        30.00S
LAGUARDIA APRT PTCLDY    83  69  62 SW8       29.96S
KENNEDY INTL   PTCLDY    80  71  74 SW8       29.98S
NEWARK/LIBERTY CLEAR     81  72  74 S6        29.97S
BRNX BOT. GARD   N/A     79  70  73 E2        29.99S
TETERBORO      CLEAR     81  70  69 S3        29.96S
$$

NYZ177-179-078>081-290500-
LONG ISLAND NEW YORK

CITY           SKY/WX    TMP DP  RH WIND       PRES   REMARKS
FARMINGDALE    CLEAR     78  72  81 SW3       29.98F
ISLIP          PTCLDY    76  72  87 CALM      29.96F
SHIRLEY        CLEAR     76  71  85 SW3       29.98F
WESTHAMPTON    CLEAR     74  71  91 W3        29.99S
MONTAUK POINT    N/A     77  70  79 W5        29.98R
$$

NYZ052-065-067-290500-
HUDSON VALLEY

CITY           SKY/WX    TMP DP  RH WIND       PRES   REMARKS
WHITE PLAINS   CLEAR     74  68  81 CALM      29.99S
NEWBURGH       CLEAR     73  68  83 CALM      30.00S
MONTGOMERY     CLEAR     71  67  87 CALM      29.99R
POUGHKEEPSIE   CLEAR     73  69  87 CALM      29.97R
ALBANY         PTCLDY    74  63  68 SW7       29.97S
$$

NJZ001-105-106-008-010-013-015-019>022-104-290500-
NEW JERSEY

CITY           SKY/WX    TMP DP  RH WIND       PRES   REMARKS
NEWARK/LIBERTY CLEAR     81  72  74 S6        29.97S
TETERBORO      CLEAR     81  70  69 S3        29.96S
CALDWELL       CLEAR     76  64  66 CALM      29.99R
MORRISTOWN     CLEAR     70  64  83 CALM      29.99R
SOMERVILLE     CLEAR     71  66  84 NW3       29.98R
SUSSEX         CLEAR     69  66  90 CALM      30.00S
ANDOVER          N/A     69  67  93 CALM      30.01R
TRENTON        CLEAR     77  71  82 CALM      29.99R
MILLVILLE      CLEAR     74  72  93 CALM      30.00S
ATLANTIC CITY  CLEAR     75  72  90 SW5       30.00S
WRIGHTSTOWN    CLEAR     72  70  94 SW5       29.97S
TOMS RIVER     CLEAR     72  68  88 CALM      30.00S
BELMAR         CLEAR     75  66  73 S6        29.99S
$$

PAZ047>061-062-071-290500-
EASTERN PENNSYLVANIA

CITY           SKY/WX    TMP DP  RH WIND       PRES   REMARKS
PHILADELPHIA   PTCLDY    80  72  76 W7        30.00R
ALLENTOWN      CLEAR     73  68  84 CALM      30.00R
SCRANTON       CLEAR     72  64  76 E7        30.03S
$$

CTZ002-004>006-009-010-012-RIZ004-006-007-MAZ004-011-015-290500-
SOUTHERN NEW ENGLAND
 IN CT

CITY           SKY/WX    TMP DP  RH WIND       PRES   REMARKS
BRADLEY INTL   PTCLDY    74  68  81 CALM      29.97R
HARTFORD       PTCLDY    73  67  81 CALM      29.97R
DANBURY        CLEAR     70  65  84 SW3       30.01S
WTRBRY/OXFORD  PTCLDY    72  64  78 CALM      30.02S
BRIDGEPORT     CLEAR     78  72  81 W5        29.97S
MERIDEN        PTCLDY    72  66  81 CALM      29.98R
NEW HAVEN      PTCLDY    77  71  82 CALM      29.98S
CHESTER        FAIR      75  70  83 W6        29.99S
GROTON         CLEAR     72  70  93 CALM      29.96S
WILLIMANTIC    PTCLDY    73  69  87 NW3       29.98S

 IN RI

CITY           SKY/WX    TMP DP  RH WIND       PRES   REMARKS
PROVIDENCE     PTCLDY    72  69  90 CALM      29.97S
BLOCK ISLAND   CLEAR     72  72 100 SW6       29.98S
WESTERLY       CLEAR     71  68  90 CALM      29.97S FOG

 IN MA

CITY           SKY/WX    TMP DP  RH WIND       PRES   REMARKS
BOSTON         CLEAR     76  67  73 W6        29.96R
WORCESTER      CLEAR     70  61  73 W7        30.01S
WESTFIELD      PTCLDY    71  68  90 CALM      29.98R
PROVINCETOWN   PTCLDY    70  63  78 CALM      29.96S
NANTUCKET      FOG       70  69  97 SW7       29.97S VSB 1/4
$$

ANZ330-335-338-340-345-350-353-355-290500-
COASTAL MARINE OBSERVATIONS


STATION/POSITION TIME  SKY/WX   TEMP    WIND        PRES    VSBY  WAVE
                                AIR SEA DIR/SP/G                  HT/PER
                 (UTC)          (F)     (DEG/KT/KT) (MB)    (MI)  (FT/S)
NY HARB ENTRANCE 0350            78 77  230/ 10/ 10 1014.8          2/ 9
4S FIRE IS       NOT AVBL
20S FIRE ISLAND  0350            76 74  240/  8/ 10 1015.0          2/ 8
GREAT SOUTH BAY  NOT AVBL
23SW MTP         0350            75 75  250/ 12/ 14 1014.5          2/11
HUDSON CANYON    NOT AVBL
KINGS POINT      0300            81 70  180/  5/  7 1014.2
CENTRAL LI SOUND NOT AVBL
EASTERN LI SOUND 0300            72 69  250/  4/  6   N/A
ROBBINS REEF     0300            79     180/ 10/ 11 1013.8
$$


>>>>>>>>>>>>>>>>>>>>>>>>>>>> KEY <<<<<<<<<<<<<<<<<<<<<<<<<<<
>                                                          <
>     SKY/WX - SKY CONDITION/PRESENT WEATHER               <
>     TMP    - TEMPERATURE IN FAHRENHEIT                   <
>     DP     - DEWPOINT IN FAHRENHEIT                      <
>     RH     - RELATIVE HUMIDITY IN PERCENT                <
>     WIND   - DIRECTION AND SPEED IN MPH                  <
>     PRES   - MEAN SEA LEVEL PRESSURE IN INCHES OF HG     <
>     WCI    - WIND CHILL INDEX                            <
>     VSB    - VISIBILITY IN MILES                         <
>     HX     - HEAT INDEX                                  <
>     TC     - TEMPERATURE IN CELSIUS                      <
>     VRB    - VARIABLE WIND DIRECTION                     <
>                                                          <
>>>>>>>>>>>>>>>>>>>>>>>>>>>> KEY <<<<<<<<<<<<<<<<<<<<<<<<<<<





USA.gov is the U.S. government's official web portal to all federal, state and local government web resources and services.